Stations météo

réclame
Mon MeteoGroup
Finisterre, Espagne (8040): Température de l'air & dewpoint: 12.08.2018 02:00:00 - 18.08.2018 02:00:00 (CEST)Finisterre, Espagne (8040): Vitesse du vent & gusts: 12.08.2018 02:00:00 - 18.08.2018 02:00:00 (CEST)Finisterre, Espagne (8040): Direction du vent: 12.08.2018 02:00:00 - 18.08.2018 02:00:00 (CEST)Finisterre, Espagne (8040): reduced air pressure: 12.08.2018 02:00:00 - 18.08.2018 02:00:00 (CEST)Finisterre, Espagne (8040): visibility: 12.08.2018 02:00:00 - 18.08.2018 02:00:00 (CEST)Finisterre, Espagne (8040): Ensoleillement: 12.08.2018 02:00:00 - 18.08.2018 02:00:00 (CEST)Finisterre, Espagne (8040): Quantités de précipitations: 12.08.2018 02:00:00 - 18.08.2018 02:00:00 (CEST)
Date & Time tt [°C] td [°C] ff [km/h] ff [knt] fx [km/h] fx [knt] dd ppp [hPa] vv [km] sd [min] rr [mm]
18.08.2018 02:00:00 15,7 12,1 23 12 55 30 E 1020,7 20 0 -
18.08.2018 01:00:00 16,0 12,3 29 16 54 29 ENE 1021,0 20 0 0,0
18.08.2018 00:00:00 16,0 12,3 31 17 63 34 NE 1021,1 17 0 0,0
17.08.2018 23:00:00 16,0 12,0 32 18 59 32 NE 1020,9 20 0 0,0
17.08.2018 22:00:00 16,3 12,1 34 18 64 35 NE 1020,4 18 13 0,0
17.08.2018 21:00:00 17,3 12,0 40 22 66 35 NE 1019,9 18 60 0,0
17.08.2018 20:00:00 18,6 12,8 22 12 56 31 NNE 1020,4 13 55 -
17.08.2018 19:00:00 19,4 12,8 31 17 55 30 NE 1020,7 17 60 0,0
17.08.2018 18:00:00 19,4 13,2 34 18 58 32 NNE 1020,4 14 60 0,0
17.08.2018 17:00:00 19,9 12,8 27 15 59 32 NNE 1021,2 18 60 0,0
17.08.2018 16:00:00 20,5 12,4 31 17 64 34 NE 1021,8 15 60 0,0
17.08.2018 15:00:00 20,1 11,6 32 18 64 35 NE 1022,1 20 56 0,0
17.08.2018 14:00:00 20,1 12,1 25 13 63 34 NE 1022,3 20 60 -
17.08.2018 13:00:00 19,4 11,4 34 18 65 35 NE 1022,2 20 60 0,0
17.08.2018 12:00:00 18,4 11,4 40 22 69 37 NE 1022,3 16 60 0,0
17.08.2018 11:00:00 17,5 11,8 37 20 59 32 NE 1022,6 14 60 0,0
17.08.2018 10:00:00 16,5 12,0 31 17 62 34 NE 1022,6 20 53 0,0
17.08.2018 09:00:00 15,4 12,5 29 16 47 25 NE 1022,6 17 19 0,0
17.08.2018 08:00:00 15,0 12,3 29 16 50 27 NE 1022,4 20 0 -
17.08.2018 07:00:00 15,0 11,8 39 21 55 30 NE 1021,9 19 0 0,0
17.08.2018 06:00:00 14,9 11,7 36 19 53 29 NNE 1021,8 18 0 0,0
17.08.2018 05:00:00 14,9 11,3 35 19 51 28 NE 1021,8 18 0 0,0
17.08.2018 04:00:00 15,0 11,2 36 19 54 29 NE 1021,7 17 0 0,0
17.08.2018 03:00:00 15,0 11,2 36 20 51 28 NE 1021,9 20 0 0,0
17.08.2018 02:00:00 15,2 12,0 36 19 55 30 NE 1022,2 17 0 -
17.08.2018 01:00:00 15,7 12,6 36 19 56 31 NE 1021,9 16 0 0,0
17.08.2018 00:00:00 16,1 13,6 38 20 56 31 NE 1021,6 16 0 0,0
16.08.2018 23:00:00 16,4 14,6 36 19 66 35 NNE 1021,2 13 0 0,0
16.08.2018 22:00:00 16,4 15,4 40 22 55 30 NNE 1020,5 7 0 0,0
16.08.2018 21:00:00 17,2 15,2 29 16 55 30 NNE 1020,0 14 12 0,0
16.08.2018 20:00:00 - - - - - - - - - - -
16.08.2018 19:00:00 18,1 16,2 32 18 58 31 NNE 1019,6 20 54 0,0
16.08.2018 18:00:00 18,0 15,8 35 19 63 34 NNE 1019,4 20 60 0,0
16.08.2018 17:00:00 18,2 16,0 39 21 57 31 N 1019,6 20 60 0,0
16.08.2018 16:00:00 18,4 15,6 39 21 58 31 NNE 1019,5 17 60 0,0
16.08.2018 15:00:00 18,1 15,2 36 20 54 29 NNE 1019,4 20 58 0,0
16.08.2018 14:00:00 18,9 15,5 30 16 53 28 NNE 1019,3 20 42 -
16.08.2018 13:00:00 17,4 15,3 33 18 59 32 NNE 1019,6 17 23 0,0
16.08.2018 12:00:00 17,0 15,7 35 19 52 28 NNE 1019,4 2,6 40 0,0
16.08.2018 11:00:00 17,1 15,4 32 17 53 29 NNE 1019,0 19 17 0,0
16.08.2018 10:00:00 16,6 15,6 37 20 61 33 NNE 1018,8 14 0 0,0
16.08.2018 09:00:00 16,8 16,1 26 14 58 31 NNE 1018,4 12 4 0,0
16.08.2018 08:00:00 16,7 16,0 35 19 59 32 NNE 1017,9 10 0 -
16.08.2018 07:00:00 16,8 16,1 31 17 48 26 NNE 1017,4 0,2 0 0,0
16.08.2018 06:00:00 16,9 16,3 32 18 50 27 NNE - - 0 0,0
16.08.2018 05:00:00 17,1 16,5 32 17 50 27 NNE 1016,9 0,2 0 0,0
16.08.2018 04:00:00 17,2 16,4 37 20 52 28 NNE 1016,9 0,9 0 0,0
16.08.2018 03:00:00 17,6 16,6 26 14 55 30 NNE 1017,1 9 0 0,0
16.08.2018 02:00:00 17,9 16,6 29 16 61 33 NNE 1016,7 13 0 -
16.08.2018 01:00:00 18,2 16,7 34 19 66 35 NNE 1016,4 13 0 0,0
16.08.2018 00:00:00 18,1 17,0 45 25 69 37 NNE 1015,8 11 0 0,0
15.08.2018 23:00:00 18,0 16,6 41 22 64 34 NNE 1015,9 12 0 0,0
15.08.2018 22:00:00 18,6 16,6 41 22 57 31 NE 1015,1 15 21 0,0
15.08.2018 21:00:00 19,7 16,3 34 19 41 22 NE 1014,7 16 58 0,0
15.08.2018 20:00:00 23,1 16,9 19 10 29 16 ENE 1014,4 18 57 -
15.08.2018 19:00:00 24,6 16,6 20 11 29 16 NE 1014,5 20 60 0,0
15.08.2018 18:00:00 25,7 16,8 18 10 25 13 NE 1014,5 18 60 0,0
15.08.2018 17:00:00 27,0 17,2 10 5 21 12 NE 1014,9 15 60 0,0
15.08.2018 16:00:00 26,6 16,0 8 4 14 8 N 1015,3 19 60 0,0
15.08.2018 15:00:00 24,9 15,0 7 4 13 7 N 1016,0 19 57 0,0
15.08.2018 14:00:00 26,0 14,4 6 3 14 8 W 1015,9 20 60 -
15.08.2018 13:00:00 26,5 16,1 6 4 11 6 S 1016,0 20 60 0,0
15.08.2018 12:00:00 24,7 16,4 3 2 9 5 W 1016,1 20 60 0,0
15.08.2018 11:00:00 24,3 16,3 3 2 8 4 E 1015,8 20 53 0,0
15.08.2018 10:00:00 23,4 14,9 2 1 12 7 S 1015,6 20 51 0,0
15.08.2018 09:00:00 23,3 13,5 11 6 14 8 SSE 1015,2 20 52 0,0
15.08.2018 08:00:00 22,6 13,1 9 5 15 8 ESE 1014,9 17 6 -
15.08.2018 07:00:00 21,2 13,2 8 4 21 12 SE 1014,8 20 0 0,0
15.08.2018 06:00:00 20,1 13,1 19 10 30 16 E 1015,0 20 0 0,0
15.08.2018 05:00:00 19,7 13,4 23 12 44 24 E 1015,6 20 0 0,0
15.08.2018 04:00:00 19,2 13,9 36 19 53 28 E 1016,0 19 0 0,0
15.08.2018 03:00:00 18,7 13,8 33 18 52 28 E 1016,5 18 0 0,0
15.08.2018 02:00:00 18,4 14,0 33 18 57 31 E 1016,9 20 0 -
15.08.2018 01:00:00 17,7 14,4 41 22 58 32 ENE 1017,3 20 0 0,0
15.08.2018 00:00:00 17,2 14,8 40 22 59 32 NE 1017,5 15 0 0,0
14.08.2018 23:00:00 17,6 14,9 14 7 42 23 NE 1018,3 16 0 0,0
14.08.2018 22:00:00 18,2 15,1 17 9 54 29 NE 1017,9 16 23 0,0
14.08.2018 21:00:00 19,9 15,5 29 16 55 30 NNE 1017,2 20 57 0,0
14.08.2018 20:00:00 21,2 16,0 21 11 52 28 NNE 1017,2 19 59 -
14.08.2018 19:00:00 20,9 15,7 31 17 55 30 NNE 1017,7 17 60 0,0
14.08.2018 18:00:00 21,5 15,8 27 15 39 21 NNE 1018,1 17 60 0,0
14.08.2018 17:00:00 22,2 16,0 22 12 38 20 NNE 1018,3 15 60 0,0
14.08.2018 16:00:00 23,1 15,9 25 13 36 19 NNE 1018,5 20 60 0,0
14.08.2018 15:00:00 23,6 15,6 17 9 34 18 NNE 1018,7 18 60 0,0
14.08.2018 14:00:00 24,3 15,3 15 8 34 18 NE 1019,0 20 60 -
14.08.2018 13:00:00 23,1 14,1 22 12 44 24 E 1019,4 20 60 0,0
14.08.2018 12:00:00 21,3 14,7 25 13 41 22 ENE 1019,3 20 60 0,0
14.08.2018 11:00:00 19,8 14,8 24 13 50 27 ENE 1019,6 20 51 0,0
14.08.2018 10:00:00 18,0 14,1 26 14 49 27 ENE 1019,7 20 50 0,0
14.08.2018 09:00:00 17,0 13,9 20 11 35 19 ENE 1020,0 20 52 0,0
14.08.2018 08:00:00 16,0 13,5 19 11 37 20 NE 1020,2 20 3 -
14.08.2018 07:00:00 16,0 14,0 19 10 37 20 NE 1020,0 20 0 0,0
14.08.2018 06:00:00 15,9 14,0 26 14 38 20 NE 1019,8 15 0 0,0
14.08.2018 05:00:00 16,3 14,3 19 10 30 16 NE 1020,0 19 0 0,0
14.08.2018 04:00:00 16,3 14,5 20 11 31 17 NE 1020,1 18 0 0,0
14.08.2018 03:00:00 16,1 14,8 19 10 33 18 NE 1020,4 17 0 0,0
14.08.2018 02:00:00 16,2 14,9 18 10 27 15 NNE 1020,4 16 0 -
14.08.2018 01:00:00 15,8 14,5 19 10 32 18 NE 1020,1 19 0 0,0
14.08.2018 00:00:00 16,2 15,1 20 11 31 17 NE 1020,1 15 0 0,0
13.08.2018 23:00:00 15,9 14,6 28 15 37 20 NE 1019,8 16 0 0,0
13.08.2018 22:00:00 16,0 14,5 23 12 36 19 NNE 1019,5 11 19 0,0
13.08.2018 21:00:00 16,6 14,8 24 13 38 21 NNE 1019,0 13 55 0,0
13.08.2018 20:00:00 17,4 14,9 22 12 35 19 NNE 1018,9 17 60 -
13.08.2018 19:00:00 17,7 14,8 19 11 34 18 N 1019,2 18 60 0,0
13.08.2018 18:00:00 18,2 14,9 23 12 36 20 N 1019,0 14 60 0,0
13.08.2018 17:00:00 18,0 14,7 22 12 32 17 N 1019,2 15 60 0,0
13.08.2018 16:00:00 18,2 15,4 20 11 27 15 N 1019,5 18 60 0,0
13.08.2018 15:00:00 18,6 15,9 14 8 23 12 N 1019,3 18 59 0,0
13.08.2018 14:00:00 17,0 15,7 15 8 23 12 NNW 1019,5 20 1 -
13.08.2018 13:00:00 17,2 15,7 7 4 15 8 NW 1019,5 9 19 0,0
13.08.2018 12:00:00 17,7 16,0 8 4 12 7 NNW 1019,2 20 48 0,0
13.08.2018 11:00:00 16,8 15,7 5 3 12 7 NNW 1018,9 20 1 0,0
13.08.2018 10:00:00 16,1 14,8 8 4 15 8 NNW 1018,6 17 0 0,0
13.08.2018 09:00:00 16,0 15,1 7 4 12 7 NW 1018,0 19 0 0,0
13.08.2018 08:00:00 15,8 14,8 7 4 11 6 WNW 1017,7 13 0 -
13.08.2018 07:00:00 15,7 14,7 4 2 18 10 NE 1017,3 18 0 0,0
13.08.2018 06:00:00 15,5 14,7 9 5 16 9 N 1017,0 20 0 0,8
13.08.2018 05:00:00 16,0 15,2 7 4 17 9 NNW 1017,1 0,2 0 0,0
13.08.2018 04:00:00 16,0 15,1 13 7 18 10 W 1017,0 5 0 0,0
13.08.2018 03:00:00 15,8 14,8 6 3 23 13 NW 1017,4 20 0 0,0
13.08.2018 02:00:00 15,9 14,9 13 7 20 11 W 1017,5 19 0 -
13.08.2018 01:00:00 15,8 14,7 8 5 17 9 W 1017,7 0,4 0 0,0
13.08.2018 00:00:00 15,9 14,4 5 3 21 11 NW 1017,9 4,1 0 0,0
12.08.2018 23:00:00 16,4 14,0 10 6 27 14 WNW 1017,6 20 0 0,0
12.08.2018 22:00:00 16,4 13,9 17 9 32 17 NW 1017,4 20 0 0,0
12.08.2018 21:00:00 16,8 13,8 14 8 25 14 NW 1016,9 19 1 0,0
12.08.2018 20:00:00 17,8 15,1 9 5 16 9 NW 1016,8 20 3 -
12.08.2018 19:00:00 17,6 15,6 8 5 22 12 NNW 1017,0 19 1 0,0
12.08.2018 18:00:00 17,8 16,5 14 7 24 13 WNW 1017,1 17 21 0,0
12.08.2018 17:00:00 18,9 18,1 14 8 29 15 NW 1017,0 17 50 0,0
12.08.2018 16:00:00 18,1 17,5 15 8 26 14 NNW - - 0 0,0
12.08.2018 15:00:00 17,0 16,4 17 9 32 17 SW 1017,5 0,1 0 0,6
12.08.2018 14:00:00 16,9 16,3 24 13 35 19 SSW - - 0 -
12.08.2018 13:00:00 16,9 16,1 22 12 29 16 S - - 0 0,6
12.08.2018 12:00:00 16,9 16,1 18 10 24 13 S - - 0 0,2
12.08.2018 11:00:00 17,1 16,3 18 10 23 12 S - - 0 0,0
12.08.2018 10:00:00 16,7 15,9 13 7 18 10 S 1017,3 0,1 0 0,2
12.08.2018 09:00:00 16,9 16,1 11 6 14 8 WSW 1017,3 0,1 0 0,0
12.08.2018 08:00:00 16,9 16,1 11 6 21 11 WSW 1017,1 0,1 0 -
12.08.2018 07:00:00 17,3 16,5 10 5 18 10 WSW 1017,0 0,2 0 0,0
12.08.2018 06:00:00 17,4 16,6 10 5 16 8 W 1017,3 0,3 0 0,0
12.08.2018 05:00:00 16,7 15,7 8 4 11 6 NNW 1017,9 1,6 0 0,0
12.08.2018 04:00:00 16,1 15,2 9 5 24 13 NNE 1017,9 0,1 0 0,0
12.08.2018 03:00:00 16,5 15,2 17 9 27 15 N 1018,5 0,3 0 0,0
12.08.2018 02:00:00 16,6 14,4 20 11 30 16 NNE 1019,0 20 0 -

tt = Température de l'air
td = dewpoint
ff = Vitesse du vent
fx = gusts
dd = Direction du vent
ppp = reduced air pressure
vv = visibility
sd = Ensoleillement
rr = Quantités de précipitations

stations d'obs. à proximité